Regional Weather Roundup
Issued by NWS

Home | Current Version | Previous Version | Graphics & Text | Print | Product List | Glossary On
Versions: 1 2 3 4 5 6 7 8 9 10 11 12 13 14 15 16 17 18 19 20 21 22 23 24 25 26 27 28 29 30 31 32 33 34 35 36 37 38 39 40 41 42 43 44 45 46 47 48 49 50
000
ASUS45 KCYS 270810
RWRWY

WYOMING REGIONAL WEATHER ROUNDUP
NATIONAL WEATHER SERVICE CHEYENNE WY
200 AM MDT WED MAY 27 2015

NOTE:  "FAIR" INDICATES FEW OR NO CLOUDS BELOW 12,000 FEET
WITH NO SIGNIFICANT WEATHER AND/OR OBSTRUCTIONS TO VISIBILITY.

WYZ001-270900-
YELLOWSTONE NATIONAL PARK

CITY           SKY/WX    TMP DP  RH WIND       PRES   REMARKS
LK YELLOWSTONE   N/A     36  34  92 CALM      30.14S
W YELLOWSTONE  NOT AVBL

$$
WYZ002>013-054>058-071-098>099-270900-
NORTHERN WYOMING

CITY           SKY/WX    TMP DP  RH WIND       PRES   REMARKS
JACKSON        MOCLDY    39  37  93 SW3       30.10F
CODY           CLOUDY    52  46  82 CALM      29.99S
GREYBULL       CLOUDY    57  48  72 S8        29.97R
WORLAND        CLOUDY    54  51  90 W6        29.98S
SHERIDAN       FAIR      47  45  93 S3        29.96F
BUFFALO        FAIR      50  46  86 SW3       30.00F
GILLETTE       FAIR      51  48  89 CALM      29.99R
HULETT         FAIR      52  46  82 CALM      30.00S
NEWCASTLE      PTSUNNY   54  46  76 SE9       30.02F

$$
WYZ014>020-022>026-101>103-270900-
CENTRAL WYOMING

CITY           SKY/WX    TMP DP  RH WIND       PRES   REMARKS
BIG PINEY      FAIR      44  40  85 CALM      30.11F
PINEDALE       CLOUDY    43  43 100 CALM      30.13S
DUBOIS         PTSUNNY   41  36  81 NW10      30.07S
LANDER         FAIR      48  41  76 W10       30.00F
RIVERTON       CLOUDY    51  48  89 E3        30.02S
CASPER         CLOUDY    52  49  89 CALM      30.03F
DOUGLAS        CLOUDY    52  50  93 SW5       30.04F

$$
WYZ021-027>030-104>119-270900-
SOUTHERN WYOMING

CITY           SKY/WX    TMP DP  RH WIND       PRES   REMARKS
EVANSTON       FAIR      42  40  92 SW8       30.14S
KEMMERER       FAIR      41  39  93 W5        30.14S
FORT BRIDGER   SUNNY     43  43 100 W9        30.16S
ROCK SPRINGS   MOCLDY    47  42  83 SW10      30.11S
DIXON          CLOUDY    49  44  83 S9G17     30.15F
RAWLINS        MOCLDY    46  43  89 S3        30.11S
SARATOGA       CLOUDY    46  43  87 S7        30.13F
LARAMIE        CLOUDY    47  43  86 SW3       30.12F
CHEYENNE       CLOUDY    49  45  86 W6        30.08F
TORRINGTON     CLOUDY    55  52  89 CALM      30.02S
PINE BLUFFS    PTSUNNY   52  46  82 CALM      30.05F

$$



USA.gov is the U.S. government's official web portal to all federal, state and local government web resources and services.